STARLINK-36663, 67919

Orbit data source: Space-Track

STARLINK-36663, 67919 is a payload satellite owned by SpaceX/Seattle (US) in LEO that was launched on Sun, 22 Feb 2026 UTC via an FALCON 9 launch vehicle from the Air Force Eastern Test Range (AFETR). Payload-class satellites include a variety of spacecraft equipped with specific instruments for various scientific and technological missions. These include communications satellites like Starlink; space stations such as the ISS; scientific satellites like the Hubble; Earth observation satellites from companies like Planet Labs, Umbra, and HawkEye 360; GPS; miniature CubeSats for education and research; and military/defense satellites.

Loading next visibility...
Identifier
67919, 2026-036R
Orbit
LEO
Country
Flag of USUS
Related business
Manufacturer
SpaceX/Seattle
Mission
Operational Commercial Communications
Bus & Motor
STARLINK V2MO, Unknown motor
Mass
575 kg wet, ~530 kg dry
Launch date (UTC)
2026-02-22 (4 months ago)
Launch vehicle
FALCON 9
Launch site
Air Force Eastern Test Range (AFETR)
Object type
Payload
Rocket body
Debris
Shape & HBR
Box + 2 Pan, 17.7 m
Radar Cross Section
36.964 m², Large (>1 m²)

Expand to show TLE details & history
Last TLE update: 20 hours ago

TLE from 20 hours ago
0 STARLINK-36663
1 67919U 26036R   26171.00232705  .00019365  00000-0  71081-3 0  9999
2 67919  43.0060  27.0843 0001680 255.3080 104.7585 15.27605802 19375
Epoch: 2026-06-20T00:03Z
TLE epoch observation values (Epoch: 2026-06-20T00:03:21.057Z)
Latitude
-0.00004°
Longitude
118.02331°
Altitude
483.042 km
Speed
7.626 km/s
True Right ascension
01h 48m 20s
True Declination
0° 00' 00"
Sunlit
Object was in daylight at epoch
Visualization orbit readout
Latitude
Unknown
Longitude
Unknown
Altitude
Unknown
Speed
Unknown
Apparent Right ascension
Unknown
Apparent Declination
Unknown
Sunlit
N/A
Visualization observer readout
Local Sidereal Time
07:20:53
Azimuth
Unknown
Elevation
Unknown
Doppler factor
Unknown
Orbital elements
Apogee altitude
486.069 km
Perigee altitude
483.763 km
Semi-major axis
6,863.053 km
Eccentricity
0.00017
Inclination
43.006°
RAAN
27.0843°
Arg. of periapsis
255.308°
True anomaly
104.77712°
Mean anomaly
104.7585°
Eccentric anomaly
104.76781°
Mean motion
3.8174 °/min
Orbital period
94.31 mins
BSTAR
0.00071081
Loading maneuver chart data...
Computing Atmospheric mass density...
Loading historical data...
Loading historical data...
Loading historical data...
Loading historical data...
Loading historical data...
Loading historical data...
Loading historical data...

Documentation

Showing up to 5 results
|